Orbital Elements at Epoch 2459200.5 (2020-Dec-17.0) TDB
Reference: JPL 15 (heliocentric ecliptic J2000)
Element | Value | Uncertainty (1-sigma) | Units |
e | .1249454531401085 | 6.0875e-08 | |
a | 2.473359432194507 | 1.8967e-08 | au |
q | 2.164324417160603 | 1.537e-07 | au |
i | 13.89042609580001 | 6.363e-06 | deg |
node | 274.1518748475472 | 2.5285e-05 | deg |
peri | 26.57488962201326 | 3.5503e-05 | deg |
M | 30.0643314667905 | 2.8391e-05 | deg |
tp | 2459081.847108283343 (2020-Aug-20.34710828) | 0.00011157 | TDB |
period | 1420.787988090815 3.89 | 1.6343e-05 4.474e-08 | d yr |
n | .2533805205404011 | 2.9146e-09 | deg/d |
Q | 2.782394447228411 | 2.1337e-08 | au |
|
| | Orbit Determination Parameters
Additional Information
|